[keps] orb07354.2l.amsat
Ray Hoad
r.hoad at att.net
Thu Dec 20 18:15:08 PST 2007
SB KEPS @ AMSAT $ORB07354.N
2Line Orbital Elements 07354.AMSAT
HR AMSAT ORBITAL ELEMENTS FOR AMATEUR SATELLITES IN NASA FORMAT
FROM WA5QGD FORT WORTH,TX December 20, 2007
Send Subscribe/unsubscribe to KEPS at
http://www.amsat.org/mailman/listinfo/keps
BID: ORB07354.N
DECODE 2-LINE ELSETS WITH THE FOLLOWING KEY:
1 AAAAAU 00 0 0 BBBBB.BBBBBBBB .CCCCCCCC 00000-0 00000-0 0 DDDZ
2 AAAAA EEE.EEEE FFF.FFFF GGGGGGG HHH.HHHH III.IIII JJ.JJJJJJJJKKKKKZ
KEY: A-CATALOGNUM B-EPOCHTIME C-DECAY D-ELSETNUM E-INCLINATION F-RAAN
G-ECCENTRICITY H-ARGPERIGEE I-MNANOM J-MNMOTION K-ORBITNUM Z-CHECKSUM
TO ALL RADIO AMATEURS BT
PO-63
1 29712U 07001D 07353.78448119 .00000778 00000-0 10974-3 0 00176
2 29712 097.9019 050.1700 0013183 244.9996 114.9837 14.79947617050788
VO-52
1 28650U 05017B 07353.25498731 .00000086 00000-0 17686-4 0 8075
2 28650 097.8131 059.6312 0027391 013.2644 346.9255 14.81397531141811
AO-40
1 26609U 00072B 07351.47294093 -.00000097 00000-0 10000-3 0 9795
2 26609 007.1448 106.6204 7931490 032.8942 357.2143 01.25583130 32748
SO-33
1 25509U 98061B 07353.77977827 -.00000096 00000-0 -33649-4 0 00893
2 25509 031.4318 256.4182 0355847 249.8599 106.3411 14.28187474477807
FO-29
1 24278U 96046B 07353.89886707 -.00000054 00000-0 -15761-4 0 6609
2 24278 098.5781 288.8168 0350476 322.3889 035.3197 13.52934624560013
RS-15
1 23439U 94085A 07353.70335505 -.00000039 00000-0 10000-3 0 01228
2 23439 064.8184 066.9081 0152889 156.9823 203.8045 11.27552489534616
UO-11
1 14781U 84021B 07353.49023789 -.00000127 00000-0 -96533-5 0 05490
2 14781 098.1749 019.6175 0008171 298.9935 061.0432 14.79602255277139
AO-10
1 14129U 83058B 07353.10457287 -.00000199 00000-0 10000-3 0 4521
2 14129 025.9582 240.1837 6045084 082.6724 338.2003 02.05872292184370
AO-07
1 07530U 74089B 07353.53193531 -.00000028 00000-0 10000-3 0 00571
2 07530 101.4918 025.9165 0011821 254.6209 105.3559 12.53573149514345
LIBERT
1 31129U 07012N 07353.69454929 .00000338 00000-0 89029-4 0 5994
2 31129 098.0651 059.5851 0102704 172.2843 187.9946 14.51985558 35723
CP3
1 31128U 07012M 07353.77840088 -.00000047 00000-0 00000-0 0 02091
2 31128 098.0644 059.6409 0103270 171.9823 188.3044 14.51895778035758
CP4
1 31122U 07012F 07353.72377727 .00000551 00000-0 13192-3 0 02149
2 31122 098.0652 060.8186 0086263 168.9122 191.3983 14.55065011035835
NO-61
1 29664U 06055F 07353.91172859 .00859736 12074-4 21761-3 0 07212
2 29664 051.6153 179.6119 0002900 301.2709 058.7991 16.28182950057910
HO-59
1 29484U 06041F 07353.72924077 .00064577 38707-5 31624-3 0 9598
2 29484 098.2595 073.6291 0151177 313.0501 045.8085 15.67447924 69970
CO-56
1 28941U 06005C 07353.68385535 .00028059 26711-5 25386-3 0 07234
2 28941 098.1110 076.2426 0198134 332.6850 026.4042 15.47419185102046
AO-51
1 28375U 04025K 07353.39335672 .00000018 00000-0 18175-4 0 09863
2 28375 098.0903 022.9554 0084631 341.8817 017.9361 14.40590984182379
CO-57
1 27848U 03031J 07353.53597537 .00000052 00000-0 44814-4 0 01497
2 27848 098.7176 358.4396 0009208 283.2813 076.7340 14.20363663231763
CO-55
1 27844U 03031E 07353.63233488 .00000074 00000-0 54619-4 0 01933
2 27844 098.7179 359.3981 0009100 278.9420 081.0728 14.20549909231801
SO-50
1 27607U 02058C 07353.20899633 -.00000004 00000-0 21590-4 0 04840
2 27607 064.5586 243.2375 0075216 315.8876 043.6250 14.71312022268349
NO-44
1 26931U 01043C 07353.56710514 -.00000201 00000-0 -46110-4 0 07603
2 26931 067.0529 029.9511 0004965 256.0417 104.0142 14.29504884324598
MO-46
1 26548U 00057D 07353.40448779 .00000113 00000-0 31567-4 0 9764
2 26548 064.5585 329.6419 0008081 348.5229 011.5682 14.83210037391009
GO-32
1 25397U 98043D 07353.84273988 -.00000008 00000-0 14893-4 0 04800
2 25397 098.3908 032.6886 0001978 068.1857 291.9510 14.23135743490562
PO-28
1 22829U 93061G 07353.46124155 -.00000061 00000-0 -77003-5 0 08291
2 22829 098.3416 317.6475 0010505 047.8579 312.3503 14.30174911742292
IO-26
1 22826U 93061D 07353.52609738 .00000012 00000-0 20853-4 0 05550
2 22826 098.3528 316.5731 0009890 072.5394 287.6878 14.29472965742052
AO-27
1 22825U 93061C 07353.58074010 .00000038 00000-0 31343-4 0 08540
2 22825 098.3595 315.6328 0009403 076.0666 284.1597 14.29225789741978
LO-19
1 20442U 90005G 07353.50030216 .00000065 00000-0 39143-4 0 01314
2 20442 098.1901 347.0157 0011907 358.6336 001.4832 14.32018855935216
AO-16
1 20439U 90005D 07353.49282068 .00000016 00000-0 21085-4 0 02089
2 20439 098.2119 337.9866 0011245 000.3629 359.7567 14.31778982935060
NOAA-18
1 28654U 05018A 07353.88625322 .00000447 00000-0 27217-3 0 02397
2 28654 098.8505 292.2174 0015169 102.8585 257.4286 14.11122841133040
NOAA-17
1 27453U 02032A 07353.88846474 -.00000057 00000-0 -61597-5 0 07237
2 27453 098.5603 058.5405 0010846 273.5319 086.4620 14.23933534285143
NOAA-16
1 26536U 00055A 07353.50223060 .00000285 00000-0 17960-3 0 7278
2 26536 099.1408 333.8825 0010699 017.3398 342.8148 14.12463722373266
OKEAN-0
1 25860U 99039A 07353.89270682 .00000066 00000-0 17295-4 0 02422
2 25860 097.7386 347.5499 0001649 095.9233 264.2163 14.73492106452849
FENGYUN1
1 25730U 99025A 07353.94623909 -.00000006 00000-0 21469-4 0 03168
2 25730 098.7092 330.9596 0020822 319.7297 040.2331 14.07649569443602
RESURS
1 25394U 98043A 07353.75883853 .00000006 00000-0 20771-4 0 08190
2 25394 098.4141 040.6956 0002111 029.7735 330.3564 14.24151132490764
NOAA-15
1 25338U 98030A 07353.51377424 .00000061 00000-0 44400-4 0 2808
2 25338 098.5432 345.0885 0010092 204.7119 155.3582 14.24677566499079
SICH-1
1 23657U 95046A 07353.75379894 .00000283 00000-0 32923-4 0 02570
2 23657 082.5282 264.3644 0024293 357.6480 002.4603 14.81536722663508
NOAA-14
1 23455U 94089A 07353.86222152 -.00000217 00000-0 -90730-4 0 09417
2 23455 098.9696 060.8354 0008599 296.8061 063.2206 14.13730913668873
OKEAN-4
1 23317U 94066A 07353.78793024 .00000170 00000-0 18151-4 0 04554
2 23317 082.5381 123.3940 0022423 006.1775 353.9705 14.82561380711555
MET-2/21
1 22782U 93055A 07353.27838737 -.00000001 00000-0 -14795-4 0 00158
2 22782 082.5472 255.0711 0024062 077.7717 282.6136 13.83622807722113
MET-3/5
1 21655U 91056A 07353.91786986 .00000051 00000-0 10000-3 0 04098
2 21655 082.5562 231.7150 0014399 101.2386 259.0356 13.17014010785856
NOAA-12
1 21263U 91032A 07353.46412980 .00000047 00000-0 38651-4 0 4691
2 21263 098.7628 350.4834 0011579 291.8393 068.1581 14.25508267862646
NOAA-11
1 19531U 88089A 07353.34280827 -.00000180 00000-0 -70383-4 0 9642
2 19531 098.8058 080.1573 0010923 221.6657 138.3655 14.14858950992339
NOAA-10
1 16969U 86073A 07353.64848276 .00000084 00000-0 52522-4 0 09338
2 16969 098.7368 010.8566 0012296 351.4899 008.6070 14.27345027105685
CAPE1
1 31130U 07012P 07353.91308586 -.00000020 00000-0 62496-5 0 02017
2 31130 098.0629 059.7734 0103235 171.5589 188.7366 14.51913027035560
MAST
1 31126U 07012K 07353.24891175 .00000094 00000-0 32043-4 0 2103
2 31126 098.0650 059.7087 0095238 172.0591 188.2177 14.53385260 35730
FALCON
1 30776U 07006E 07353.88134296 .00000520 00000-0 41117-4 0 02184
2 30776 035.4323 166.8733 0001601 291.7368 068.3177 15.02828622043008
FCAL
1 29667U 06055J 07353.95393789 .00040201 11962-4 97531-4 0 05969
2 29667 051.6300 194.7200 0009055 001.5616 358.5400 15.97044468057597
NCUBE2
1 28897U 05043H 07353.68091398 .00000171 00000-0 45464-4 0 04315
2 28897 098.1138 246.6540 0016351 255.1465 104.7961 14.59783506106437
CO-58
1 28895U 05043F 07353.42132659 .00000077 00000-0 25815-4 0 09027
2 28895 098.1186 246.4587 0016835 253.1328 106.8013 14.59616239114113
UWE-1
1 28892U 05043C 07353.24260569 .00000058 00000-0 21802-4 0 09274
2 28892 098.1133 245.9993 0016395 253.4473 106.4917 14.59573534114201
OO-38
1 26063U 00004C 07353.87942837 -.00000021 00000-0 13032-4 0 00894
2 26063 100.2174 030.7346 0036866 357.9304 002.1717 14.35822919413692
ISS
1 25544U 98067A 07353.90428241 .00026225 00000-0 15584-3 0 5380
2 25544 051.6401 226.2979 0000865 356.5715 177.1330 15.77810698520075
PO-34
1 25520U 98064B 07353.95505285 .00000559 00000-0 17768-4 0 09002
2 25520 028.4609 305.3346 0005625 124.1683 235.9443 15.17102498505763
UARS
1 21701U 91063B 07353.94692422 .00004973 00000-0 82356-4 0 02541
2 21701 056.9745 226.8132 0088426 187.4921 172.4823 15.49934348894539
HUBBLE
1 20580U 90037B 07353.54176846 .00000428 00000-0 20323-4 0 00396
2 20580 028.4681 061.3786 0003719 257.0894 102.9280 15.00316506767821
/EX
More information about the Keps
mailing list